sat.trackr.live / text

‹ back to catalog

STARLINK-30230

NORAD 57503 · 2023-113J

PAYLOAD ACTIVE UNKNOWN

§ Identity

Operator
Country
US
Launch date
2023-08-07
Launch site
AFETR
Launch vehicle
Mass (kg)
RCS (m²)

Purposes: comms

External: N2YO · Heavens-Above · Gunter

§ Orbital elements

Epoch: 2026-05-24T18:52:42.281472Z

Period
94.27 min
Inclination
43.0028°
Eccentricity
0.0002852
Mean motion
15.27583326 rev/d
Perigee alt
481.1 km
Apogee alt
485.0 km
Semi-major
6,861.2 km
B*
1.2339e-4
RAAN
306.2604°
Arg perigee
252.7131°
Mean anomaly
107.3409°
Rev number
15,520

§ Raw data

STARLINK-302301 57503U 23113J   26144.78660048  .00003135  00000+0  12339-3 0  99982 57503  43.0028 306.2604 0002852 252.7131 107.3409 15.27583326155207

JSON: /api/v1/satellites/57503 · /tle

For live sub-satellite position, see the globe view (requires WebGL).

§ Visibility from observer

Set your observer location to see the next 7 days of passes ≥ 10°. The values pass through the URL so the page stays shareable.

No JS? Fill the form by hand. The geolocation button needs JavaScript.